COSMOS 2251 DEB

Satellite information

Favourite Embed

Satellite Type and Status

DEBRISIN ORBIT

Key statistics

Satellite COSMOS 2251 DEB at a glance.

Uptime

11813

Days in orbit

Revolutions

≈ 14.4

Per day

Orbit

LEO

Low Earth Orbit

Inclination

74.0

Latest

Satellite identification and parameters

Extended collection of information and parameters for COSMOS 2251 DEB.

Object identification

Identified? True

Debris? True

Object name: COSMOS 2251 DEB

International designator: 1993-036ABH

Object number (NORAD): 34818

Object ID (CCSDS): 34818

Country: COMMONWEALTH OF INDEPENDENT STATES (CIS)

Current information (Y/N): Y

RCS size: SMALL

Orbital parameters

Period: 100.219 minutes

Inclination: 74.0371 deg

SMA: 7147.034 km

Apoapsis: 785.879 km

Periapsis: 751.919 km

RAAN: 38.0256 deg

Eccentricy: 0.00237577

Argument of periapsis: 131.8092 deg

Mean anomaly: 23.0958 deg

Mean motion: 14.36858404 rev/day

Mean motion (dot): 0.00001171 rev/day2

B* drag term: 0.00040364641 1/REarth

Two-line elements (TLE)

Creation date: Oct. 19, 2025, 2:20 a.m.

Reference frame: TEME

Reference center: EARTH

Epoch: Oct. 18, 2025, 6:11 p.m. UTC

TLE line 0: 0 COSMOS 2251 DEB

TLE line 1: 1 34818U 93036ABH 25291.75819126 .00001171 00000-0 40365-3 0 9994

TLE line 2: 2 34818 74.0371 38.0256 0023758 131.8092 23.0958 14.36858404865808

Live tracking on map

Real-time ground track for satellite COSMOS 2251 DEB.

In-orbit conjunctions

A list of the most updated potential collisions computed for object COSMOS 2251 DEB.

Target Orbit TCA Probability of collision Miss distance Type
CZ-6A DEB LEO 2025-01-25 19:34:49 0.0001486613 241.0 (m) DEBRIS
CZ-6A DEB LEO 2024-12-26 03:52:07 0.000103875 812.0 (m) DEBRIS
NOAA 16 DEB SSO 2024-12-24 10:34:56 0.0002718438 61.0 (m) DEBRIS
SL-8 R/B LEO 2024-12-12 03:39:19 0.0004820216 318.0 (m) ROCKET BODY

Associated space launch

Military communications satellite. Destroyed in a collision with Iridium 33.

COSMOS 2251 DEB was lifted into orbit during the mission ‘Kosmos-3M | Strela-2M 51’, on board a Kosmos-3M space rocket.

The launch took place on June 16, 1993, 4:17 a.m. from 132/1 (132L).

For more information about the launch, click the button.

Launch to space Kosmos-3M | Strela-2M 51
Kosmos-3M | Strela-2M 51

Agency: N/A

Status: Launch Successful

Launch date: June 16, 1993, 4:17 a.m. UTC

Rocket: Kosmos-3M

Launch pad: 132/1 (132L)

Location: Plesetsk Cosmodrome, Russian Federation

...

Latest news about this satellite

There are no fresh news available about this satellite. Check back as we update our databases every day.


Newsletter sign-up

Weekly statistics, charts and insights to help you stay on top of the space industry.